BAW490 EGLL-LXGB

Flight info

Callsign BAW490
Flight time 2h 28m
Altitude 35000
Route GASGU N866 SAM M195 MARUK N621 LELNA DCT ERCOZ DCT NOVAN DCT DELOG/N0444F370 DCT CRISA DCT VULPE DCT MAR N864 PIMOS
Aircraft A320/M-SDE3FGHIRWY/LB1

Departure

Time 2026-05-06 11:45
Airport London Heathrow Airport (EGLL)

Arrival

Time 2026-05-06 14:13
Airport Gibraltar Airport (LXGB)
Time Latitude Longitude Altitude Speed Heading
2026-05-06 10:52 51.46994 -0.48598 98 ft 0 kts 270°
2026-05-06 11:35 51.46994 -0.48586 97 ft 4 kts 271°
2026-05-06 11:35 51.46993 -0.48543 97 ft 4 kts 272°
2026-05-06 11:35 51.46993 -0.48500 97 ft 4 kts 258°
2026-05-06 11:35 51.47001 -0.48473 97 ft 2 kts 182°
2026-05-06 11:36 51.47003 -0.48473 97 ft 0 kts 179°
2026-05-06 11:41 51.46985 -0.48472 97 ft 6 kts 179°
2026-05-06 11:41 51.46934 -0.48471 97 ft 8 kts 179°
2026-05-06 11:41 51.46870 -0.48470 97 ft 9 kts 179°
2026-05-06 11:42 51.46830 -0.48470 97 ft 0 kts 180°
2026-05-06 11:42 51.46823 -0.48470 97 ft 2 kts 180°
2026-05-06 11:43 51.46793 -0.48470 97 ft 5 kts 180°
2026-05-06 11:43 51.46763 -0.48469 97 ft 4 kts 180°
2026-05-06 11:43 51.46715 -0.48469 97 ft 9 kts 180°
2026-05-06 11:44 51.46549 -0.48467 97 ft 17 kts 179°
2026-05-06 11:44 51.46478 -0.48393 97 ft 14 kts 91°
2026-05-06 11:44 51.46480 -0.48195 97 ft 31 kts 89°
2026-05-06 11:44 51.46483 -0.47117 98 ft 113 kts 88°
2026-05-06 11:45 51.46487 -0.45582 98 ft 161 kts 88°
2026-05-06 11:45 51.46500 -0.43712 428 ft 168 kts 82°
2026-05-06 11:45 51.46576 -0.41842 990 ft 170 kts 92°
2026-05-06 11:45 51.46170 -0.40023 1417 ft 184 kts 124°
2026-05-06 11:46 51.45521 -0.39034 1612 ft 196 kts 140°
2026-05-06 11:46 51.44512 -0.37497 1973 ft 206 kts 123°
2026-05-06 11:46 51.43737 -0.35474 2352 ft 221 kts 117°
2026-05-06 11:46 51.42758 -0.33468 2793 ft 240 kts 139°
2026-05-06 11:47 51.41190 -0.32365 3266 ft 259 kts 171°
2026-05-06 11:47 51.39375 -0.32735 3853 ft 271 kts 203°
2026-05-06 11:47 51.37846 -0.34415 4615 ft 272 kts 222°
2026-05-06 11:47 51.36460 -0.36491 5388 ft 274 kts 224°
2026-05-06 11:48 51.35038 -0.38546 6143 ft 276 kts 222°
2026-05-06 11:48 51.33543 -0.40496 6876 ft 279 kts 220°
2026-05-06 11:48 51.31998 -0.42397 7588 ft 281 kts 219°
2026-05-06 11:48 51.30633 -0.44620 8261 ft 281 kts 240°
2026-05-06 11:49 51.29834 -0.47586 8968 ft 280 kts 255°
2026-05-06 11:49 51.29356 -0.50480 9603 ft 282 kts 258°
2026-05-06 11:49 51.28898 -0.53538 10239 ft 285 kts 258°
2026-05-06 11:49 51.28385 -0.56665 10650 ft 298 kts 256°
2026-05-06 11:50 51.27773 -0.59916 10957 ft 313 kts 254°
2026-05-06 11:50 51.27107 -0.63254 11243 ft 326 kts 253°
2026-05-06 11:50 51.26401 -0.66774 11568 ft 338 kts 254°
2026-05-06 11:50 51.25691 -0.70368 12098 ft 342 kts 254°
2026-05-06 11:51 51.24980 -0.74012 12657 ft 344 kts 254°
2026-05-06 11:51 51.24270 -0.77671 13212 ft 347 kts 254°
2026-05-06 11:51 51.23552 -0.81361 13756 ft 349 kts 254°
2026-05-06 11:51 51.22826 -0.85068 14291 ft 352 kts 254°
2026-05-06 11:52 51.22090 -0.88804 14827 ft 354 kts 254°
2026-05-06 11:52 51.21350 -0.92552 15338 ft 356 kts 253°
2026-05-06 11:52 51.20358 -0.96186 15823 ft 360 kts 239°
2026-05-06 11:52 51.18763 -0.99289 16318 ft 364 kts 227°
2026-05-06 11:53 51.16931 -1.02090 16797 ft 367 kts 224°
2026-05-06 11:53 51.15027 -1.04830 17276 ft 369 kts 224°
2026-05-06 11:53 51.13122 -1.07591 17742 ft 371 kts 224°
2026-05-06 11:53 51.11238 -1.10419 18196 ft 374 kts 225°
2026-05-06 11:54 51.09394 -1.13274 18637 ft 376 kts 226°
2026-05-06 11:54 51.07529 -1.16188 19075 ft 378 kts 226°
2026-05-06 11:54 51.05640 -1.19114 19509 ft 380 kts 225°
2026-05-06 11:54 51.03732 -1.22035 19930 ft 382 kts 225°
2026-05-06 11:55 51.01807 -1.24957 20345 ft 384 kts 225°
2026-05-06 11:55 50.99868 -1.27897 20748 ft 386 kts 225°
2026-05-06 11:55 50.97924 -1.30852 21134 ft 388 kts 225°
2026-05-06 11:55 50.95961 -1.33806 21518 ft 391 kts 223°
2026-05-06 11:56 50.93793 -1.36420 21904 ft 393 kts 216°
2026-05-06 11:56 50.91511 -1.38841 22271 ft 396 kts 214°
2026-05-06 11:56 50.89211 -1.41168 22613 ft 398 kts 213°
2026-05-06 11:56 50.86869 -1.43521 22958 ft 400 kts 214°
2026-05-06 11:57 50.84528 -1.45916 23299 ft 402 kts 214°
2026-05-06 11:57 50.82189 -1.48352 23631 ft 404 kts 215°
2026-05-06 11:57 50.79847 -1.50808 23947 ft 406 kts 214°
2026-05-06 11:57 50.77483 -1.53274 24257 ft 408 kts 214°
2026-05-06 11:58 50.75107 -1.55736 24557 ft 410 kts 214°
2026-05-06 11:58 50.72714 -1.58202 24847 ft 412 kts 214°
2026-05-06 11:58 50.70305 -1.60679 25132 ft 414 kts 214°
2026-05-06 11:58 50.67891 -1.63165 25401 ft 416 kts 214°
2026-05-06 11:59 50.65491 -1.65634 25669 ft 418 kts 214°
2026-05-06 11:59 50.63050 -1.68146 25935 ft 420 kts 214°
2026-05-06 11:59 50.60598 -1.70670 26210 ft 422 kts 214°
2026-05-06 11:59 50.58132 -1.73200 26471 ft 424 kts 214°
2026-05-06 12:00 50.55655 -1.75734 26724 ft 426 kts 214°
2026-05-06 12:00 50.53165 -1.78276 26976 ft 428 kts 214°
2026-05-06 12:00 50.50661 -1.80830 27228 ft 430 kts 214°
2026-05-06 12:00 50.48148 -1.83391 27472 ft 432 kts 214°
2026-05-06 12:01 50.45622 -1.85966 27717 ft 433 kts 214°
2026-05-06 12:01 50.43093 -1.88542 27956 ft 435 kts 214°
2026-05-06 12:01 50.40545 -1.91133 28192 ft 437 kts 214°
2026-05-06 12:01 50.37990 -1.93723 28416 ft 439 kts 214°
2026-05-06 12:02 50.35458 -1.96289 28639 ft 440 kts 214°
2026-05-06 12:02 50.32880 -1.98897 28856 ft 442 kts 214°
2026-05-06 12:02 50.30294 -2.01512 29082 ft 443 kts 214°
2026-05-06 12:02 50.27693 -2.04126 29311 ft 445 kts 213°
2026-05-06 12:03 50.24940 -2.06345 29518 ft 448 kts 203°
2026-05-06 12:03 50.21934 -2.07702 29709 ft 452 kts 191°
2026-05-06 12:03 50.18805 -2.08241 29924 ft 454 kts 185°
2026-05-06 12:03 50.15645 -2.08543 30125 ft 456 kts 184°
2026-05-06 12:04 50.12477 -2.08804 30328 ft 457 kts 184°
2026-05-06 12:04 50.09339 -2.09124 30525 ft 459 kts 185°
2026-05-06 12:04 50.06162 -2.09538 30718 ft 460 kts 186°
2026-05-06 12:04 50.02963 -2.10010 30910 ft 462 kts 186°
2026-05-06 12:05 49.99787 -2.10754 31133 ft 461 kts 194°
2026-05-06 12:05 49.96734 -2.12221 31365 ft 459 kts 204°
2026-05-06 12:05 49.93896 -2.14471 31594 ft 458 kts 212°
2026-05-06 12:05 49.91183 -2.17062 31821 ft 457 kts 214°
2026-05-06 12:06 49.88514 -2.19732 32050 ft 457 kts 214°
2026-05-06 12:06 49.85870 -2.22350 32274 ft 457 kts 213°
2026-05-06 12:06 49.83163 -2.24925 32496 ft 457 kts 212°
2026-05-06 12:06 49.80428 -2.27438 32713 ft 457 kts 212°
2026-05-06 12:07 49.77690 -2.29930 32921 ft 457 kts 212°
2026-05-06 12:07 49.74958 -2.32444 33106 ft 457 kts 212°
2026-05-06 12:07 49.72235 -2.34988 33308 ft 457 kts 212°
2026-05-06 12:07 49.69557 -2.37507 33508 ft 457 kts 212°
2026-05-06 12:08 49.66809 -2.40079 33704 ft 457 kts 212°
2026-05-06 12:08 49.64125 -2.42574 33891 ft 456 kts 212°
2026-05-06 12:08 49.61399 -2.45091 34081 ft 456 kts 212°
2026-05-06 12:08 49.58677 -2.47600 34256 ft 456 kts 212°
2026-05-06 12:09 49.55957 -2.50109 34463 ft 455 kts 212°
2026-05-06 12:09 49.53239 -2.52623 34631 ft 455 kts 212°
2026-05-06 12:09 49.50527 -2.55127 34821 ft 455 kts 212°
2026-05-06 12:09 49.47813 -2.57630 34982 ft 454 kts 212°
2026-05-06 12:10 49.42392 -2.62611 35004 ft 454 kts 212°
2026-05-06 12:10 49.37001 -2.67549 35004 ft 454 kts 212°
2026-05-06 12:11 49.31575 -2.72509 35004 ft 454 kts 212°
2026-05-06 12:11 49.26144 -2.77468 35001 ft 454 kts 212°
2026-05-06 12:12 49.20710 -2.82409 35001 ft 454 kts 212°
2026-05-06 12:12 49.15312 -2.87304 35000 ft 454 kts 212°
2026-05-06 12:13 49.09875 -2.92227 34994 ft 454 kts 212°
2026-05-06 12:13 49.04431 -2.97139 34969 ft 455 kts 212°
2026-05-06 12:14 48.98981 -3.02047 34957 ft 455 kts 212°
2026-05-06 12:14 48.93573 -3.06905 34982 ft 454 kts 211°
2026-05-06 12:15 48.88123 -3.11784 34969 ft 455 kts 211°
2026-05-06 12:15 48.82682 -3.16644 35021 ft 453 kts 212°
2026-05-06 12:16 48.77264 -3.21474 35035 ft 450 kts 212°
2026-05-06 12:16 48.71878 -3.26263 35037 ft 448 kts 211°
2026-05-06 12:17 48.66548 -3.30989 35000 ft 446 kts 211°
2026-05-06 12:17 48.61230 -3.35691 34958 ft 444 kts 211°
2026-05-06 12:18 48.55875 -3.40413 34950 ft 444 kts 211°
2026-05-06 12:18 48.50539 -3.45114 34946 ft 444 kts 211°
2026-05-06 12:19 48.45226 -3.49779 34954 ft 445 kts 211°
2026-05-06 12:19 48.39860 -3.54475 34948 ft 447 kts 211°
2026-05-06 12:20 48.34353 -3.58874 34944 ft 450 kts 202°
2026-05-06 12:20 48.28222 -3.60731 34950 ft 454 kts 183°
2026-05-06 12:21 48.21928 -3.60857 34965 ft 456 kts 181°
2026-05-06 12:21 48.15587 -3.61049 35018 ft 455 kts 183°
2026-05-06 12:22 48.09255 -3.61438 35023 ft 455 kts 183°
2026-05-06 12:22 48.02925 -3.61766 35018 ft 455 kts 182°
2026-05-06 12:23 47.96594 -3.62053 34994 ft 455 kts 182°
2026-05-06 12:23 47.90307 -3.62365 34958 ft 455 kts 183°
2026-05-06 12:24 47.83976 -3.62681 34927 ft 455 kts 182°
2026-05-06 12:24 47.77646 -3.62984 34925 ft 455 kts 182°
2026-05-06 12:25 47.71324 -3.63292 34926 ft 455 kts 183°
2026-05-06 12:25 47.65035 -3.63603 34925 ft 455 kts 182°
2026-05-06 12:26 47.58708 -3.63909 34934 ft 455 kts 183°
2026-05-06 12:26 47.52376 -3.64219 34937 ft 455 kts 183°
2026-05-06 12:27 47.46041 -3.64525 34936 ft 455 kts 182°
2026-05-06 12:27 47.39748 -3.64824 34936 ft 455 kts 182°
2026-05-06 12:28 47.33415 -3.65129 34930 ft 455 kts 182°
2026-05-06 12:28 47.27090 -3.65435 34929 ft 455 kts 182°
2026-05-06 12:29 47.20743 -3.65738 34926 ft 455 kts 182°
2026-05-06 12:29 47.14411 -3.66040 34928 ft 455 kts 182°
2026-05-06 12:30 47.08116 -3.66341 34929 ft 456 kts 183°
2026-05-06 12:30 47.01784 -3.66648 34934 ft 455 kts 182°
2026-05-06 12:31 46.95451 -3.66942 34932 ft 456 kts 182°
2026-05-06 12:31 46.89113 -3.67243 34932 ft 455 kts 183°
2026-05-06 12:32 46.82779 -3.67551 34930 ft 455 kts 182°
2026-05-06 12:32 46.76489 -3.67842 34927 ft 456 kts 183°
2026-05-06 12:33 46.70150 -3.68140 34924 ft 456 kts 183°
2026-05-06 12:33 46.63803 -3.68443 34934 ft 456 kts 183°
2026-05-06 12:34 46.57460 -3.68737 34962 ft 456 kts 183°
2026-05-06 12:34 46.51160 -3.69032 34964 ft 456 kts 183°
2026-05-06 12:35 46.44814 -3.69328 34965 ft 456 kts 183°
2026-05-06 12:35 46.38474 -3.69624 34961 ft 456 kts 183°
2026-05-06 12:36 46.32130 -3.69956 34955 ft 456 kts 185°
2026-05-06 12:36 46.25857 -3.70822 34923 ft 456 kts 187°
2026-05-06 12:37 46.19552 -3.71806 34932 ft 456 kts 187°
2026-05-06 12:37 46.13237 -3.72756 34947 ft 456 kts 187°
2026-05-06 12:38 46.06924 -3.73688 34952 ft 456 kts 187°
2026-05-06 12:38 46.00652 -3.74616 34956 ft 456 kts 187°
2026-05-06 12:39 45.94339 -3.75553 34980 ft 456 kts 187°
2026-05-06 12:39 45.88032 -3.76489 34991 ft 456 kts 187°
2026-05-06 12:40 45.81720 -3.77419 34991 ft 456 kts 187°
2026-05-06 12:40 45.75413 -3.78348 34987 ft 456 kts 187°
2026-05-06 12:41 45.69144 -3.79277 34982 ft 456 kts 187°
2026-05-06 12:41 45.62835 -3.80201 34991 ft 456 kts 187°
2026-05-06 12:42 45.56532 -3.81118 35006 ft 455 kts 187°
2026-05-06 12:42 45.50222 -3.82038 34988 ft 456 kts 187°
2026-05-06 12:43 45.43957 -3.82958 34998 ft 455 kts 187°
2026-05-06 12:43 45.37650 -3.83869 34981 ft 456 kts 187°
2026-05-06 12:44 45.31342 -3.84785 34988 ft 456 kts 187°
2026-05-06 12:44 45.25034 -3.85695 35014 ft 455 kts 187°
2026-05-06 12:45 45.18734 -3.86604 35028 ft 455 kts 187°
2026-05-06 12:46 45.09335 -3.87959 35007 ft 455 kts 187°
2026-05-06 12:46 45.03039 -3.88857 35021 ft 454 kts 187°
2026-05-06 12:47 44.96751 -3.89754 35012 ft 454 kts 188°
2026-05-06 12:47 44.90463 -3.90652 35006 ft 454 kts 188°
2026-05-06 12:48 44.84220 -3.91540 35017 ft 454 kts 188°
2026-05-06 12:48 44.77938 -3.92430 35004 ft 454 kts 188°
2026-05-06 12:49 44.71657 -3.93321 35020 ft 453 kts 188°
2026-05-06 12:49 44.65378 -3.94209 35025 ft 453 kts 188°
2026-05-06 12:50 44.59142 -3.95086 35006 ft 454 kts 188°
2026-05-06 12:50 44.52867 -3.95967 35024 ft 453 kts 188°
2026-05-06 12:51 44.46597 -3.96846 35033 ft 453 kts 188°
2026-05-06 12:51 44.40324 -3.97728 35040 ft 453 kts 188°
2026-05-06 12:52 44.34055 -3.98604 35019 ft 453 kts 188°
2026-05-06 12:52 44.27810 -3.99355 35003 ft 453 kts 187°
2026-05-06 12:53 44.21528 -4.00066 35013 ft 453 kts 187°
2026-05-06 12:53 44.15242 -4.00783 35006 ft 453 kts 187°
2026-05-06 12:54 44.08962 -4.01503 35005 ft 453 kts 187°
2026-05-06 12:54 44.02717 -4.02214 35006 ft 453 kts 187°
2026-05-06 12:55 43.96433 -4.02925 35012 ft 453 kts 187°
2026-05-06 12:55 43.90152 -4.03640 35010 ft 453 kts 187°
2026-05-06 12:56 43.83868 -4.04351 35012 ft 453 kts 187°
2026-05-06 12:56 43.77585 -4.05058 35023 ft 453 kts 187°
2026-05-06 12:57 43.71347 -4.05762 35035 ft 452 kts 187°
2026-05-06 12:57 43.65075 -4.06470 35043 ft 452 kts 187°
2026-05-06 12:58 43.58808 -4.07171 35065 ft 452 kts 187°
2026-05-06 12:58 43.52535 -4.07872 35070 ft 452 kts 187°
2026-05-06 12:59 43.46320 -4.08565 35081 ft 451 kts 187°
2026-05-06 12:59 43.40068 -4.09266 35094 ft 451 kts 187°
2026-05-06 13:00 43.33814 -4.09960 35097 ft 450 kts 187°
2026-05-06 13:00 43.27572 -4.10653 35100 ft 450 kts 187°
2026-05-06 13:01 43.21343 -4.11342 35093 ft 449 kts 187°
2026-05-06 13:01 43.15161 -4.12024 35093 ft 448 kts 188°
2026-05-06 13:02 43.08948 -4.12719 35087 ft 448 kts 188°
2026-05-06 13:02 43.02736 -4.13399 35079 ft 447 kts 188°
2026-05-06 13:03 42.96544 -4.14079 35086 ft 446 kts 188°
2026-05-06 13:03 42.90357 -4.14769 35084 ft 445 kts 188°
2026-05-06 13:04 42.84227 -4.15433 35080 ft 445 kts 188°
2026-05-06 13:04 42.78059 -4.16105 35076 ft 444 kts 188°
2026-05-06 13:05 42.71911 -4.16784 35070 ft 443 kts 188°
2026-05-06 13:05 42.65761 -4.17457 35068 ft 443 kts 188°
2026-05-06 13:06 42.59662 -4.18119 35066 ft 442 kts 188°
2026-05-06 13:06 42.53539 -4.18790 35052 ft 441 kts 188°
2026-05-06 13:07 42.47416 -4.19451 35027 ft 441 kts 188°
2026-05-06 13:07 42.41301 -4.20105 35015 ft 441 kts 188°
2026-05-06 13:08 42.35191 -4.20765 34989 ft 441 kts 189°
2026-05-06 13:08 42.29124 -4.21424 34974 ft 440 kts 189°
2026-05-06 13:09 42.23024 -4.22079 34994 ft 439 kts 189°
2026-05-06 13:09 42.16918 -4.22731 34969 ft 440 kts 189°
2026-05-06 13:10 42.10862 -4.23380 34969 ft 440 kts 189°
2026-05-06 13:10 42.04761 -4.24031 34968 ft 440 kts 189°
2026-05-06 13:11 41.98657 -4.24676 34968 ft 440 kts 189°
2026-05-06 13:11 41.92560 -4.25319 35007 ft 439 kts 189°
2026-05-06 13:12 41.86472 -4.25961 35011 ft 439 kts 189°
2026-05-06 13:12 41.80382 -4.26614 35011 ft 439 kts 189°
2026-05-06 13:13 41.74332 -4.27247 35011 ft 439 kts 189°
2026-05-06 13:13 41.68243 -4.27881 35011 ft 439 kts 189°
2026-05-06 13:14 41.62163 -4.28532 35032 ft 438 kts 189°
2026-05-06 13:14 41.56084 -4.29172 35016 ft 438 kts 189°
2026-05-06 13:15 41.50039 -4.29792 35007 ft 438 kts 189°
2026-05-06 13:15 41.43957 -4.30424 35001 ft 438 kts 189°
2026-05-06 13:16 41.37892 -4.31054 35041 ft 437 kts 189°
2026-05-06 13:16 41.31827 -4.31693 35008 ft 437 kts 189°
2026-05-06 13:17 41.25799 -4.32318 34994 ft 437 kts 189°
2026-05-06 13:17 41.19742 -4.32936 34994 ft 436 kts 189°
2026-05-06 13:18 41.13693 -4.33569 34995 ft 436 kts 189°
2026-05-06 13:18 41.07648 -4.34189 34985 ft 436 kts 189°
2026-05-06 13:19 41.01646 -4.34807 35003 ft 435 kts 189°
2026-05-06 13:19 40.95628 -4.35433 35042 ft 433 kts 189°
2026-05-06 13:20 40.89617 -4.36048 35022 ft 433 kts 189°
2026-05-06 13:20 40.83608 -4.36664 34981 ft 433 kts 189°
2026-05-06 13:21 40.77605 -4.37278 34987 ft 432 kts 189°
2026-05-06 13:21 40.71657 -4.37882 34994 ft 431 kts 189°
2026-05-06 13:22 40.65676 -4.38498 34967 ft 431 kts 189°
2026-05-06 13:22 40.59702 -4.39104 34966 ft 431 kts 189°
2026-05-06 13:23 40.53724 -4.39712 34953 ft 430 kts 189°
2026-05-06 13:23 40.47759 -4.40323 34989 ft 429 kts 189°
2026-05-06 13:24 40.41851 -4.40929 34988 ft 429 kts 189°
2026-05-06 13:24 40.35898 -4.41539 34948 ft 429 kts 189°
2026-05-06 13:25 40.29949 -4.42141 34954 ft 429 kts 189°
2026-05-06 13:25 40.24008 -4.42734 34960 ft 428 kts 189°
2026-05-06 13:26 40.18109 -4.43323 34932 ft 428 kts 189°
2026-05-06 13:26 40.12171 -4.43927 34944 ft 428 kts 190°
2026-05-06 13:27 40.06240 -4.44527 34933 ft 428 kts 189°
2026-05-06 13:27 40.00306 -4.45117 34928 ft 428 kts 189°
2026-05-06 13:28 39.94373 -4.45713 34951 ft 427 kts 190°
2026-05-06 13:28 39.88500 -4.46303 35002 ft 426 kts 190°
2026-05-06 13:29 39.82596 -4.46893 34975 ft 426 kts 190°
2026-05-06 13:29 39.76679 -4.47479 34944 ft 426 kts 190°
2026-05-06 13:30 39.70765 -4.48069 34931 ft 426 kts 190°
2026-05-06 13:30 39.64863 -4.48654 34964 ft 425 kts 190°
2026-05-06 13:31 39.59005 -4.49225 34935 ft 425 kts 190°
2026-05-06 13:31 39.53106 -4.49815 34947 ft 425 kts 190°
2026-05-06 13:32 39.47213 -4.50404 34936 ft 425 kts 190°
2026-05-06 13:32 39.41321 -4.50985 34967 ft 424 kts 190°
2026-05-06 13:33 39.35443 -4.51559 34944 ft 424 kts 190°
2026-05-06 13:33 39.29601 -4.52144 34956 ft 423 kts 190°
2026-05-06 13:34 39.23737 -4.52717 34986 ft 422 kts 190°
2026-05-06 13:34 39.17871 -4.53276 34954 ft 422 kts 190°
2026-05-06 13:35 39.12010 -4.53851 34927 ft 422 kts 190°
2026-05-06 13:35 39.06207 -4.54421 34943 ft 421 kts 190°
2026-05-06 13:36 39.00365 -4.54986 34906 ft 421 kts 190°
2026-05-06 13:36 38.94518 -4.55559 34900 ft 420 kts 191°
2026-05-06 13:37 38.88771 -4.56632 34929 ft 416 kts 195°
2026-05-06 13:37 38.83105 -4.57870 34917 ft 416 kts 195°
2026-05-06 13:38 38.77394 -4.59065 34898 ft 416 kts 195°
2026-05-06 13:38 38.71679 -4.60240 34922 ft 415 kts 195°
2026-05-06 13:39 38.65980 -4.61425 34896 ft 415 kts 195°
2026-05-06 13:39 38.60313 -4.62604 34912 ft 415 kts 195°
2026-05-06 13:40 38.54626 -4.63778 34940 ft 414 kts 195°
2026-05-06 13:40 38.48949 -4.64955 34906 ft 414 kts 195°
2026-05-06 13:41 38.43265 -4.66124 34889 ft 413 kts 195°
2026-05-06 13:41 38.37589 -4.67296 34872 ft 413 kts 195°
2026-05-06 13:42 38.31952 -4.68452 34874 ft 413 kts 195°
2026-05-06 13:42 38.26281 -4.69616 34870 ft 413 kts 195°
2026-05-06 13:43 38.20616 -4.70776 34868 ft 412 kts 195°
2026-05-06 13:43 38.14964 -4.71933 34869 ft 411 kts 195°
2026-05-06 13:44 38.09374 -4.73073 34866 ft 408 kts 195°
2026-05-06 13:44 38.03760 -4.74223 34866 ft 404 kts 195°
2026-05-06 13:45 37.98182 -4.75363 34898 ft 409 kts 195°
2026-05-06 13:45 37.89757 -4.77068 34911 ft 411 kts 195°
2026-05-06 13:46 37.84104 -4.78211 34834 ft 410 kts 195°
2026-05-06 13:46 37.81308 -4.78771 34584 ft 403 kts 195°
2026-05-06 13:46 37.78562 -4.79324 34179 ft 398 kts 195°
2026-05-06 13:47 37.75828 -4.79884 33619 ft 399 kts 195°
2026-05-06 13:47 37.73078 -4.80444 33018 ft 400 kts 195°
2026-05-06 13:47 37.70341 -4.80999 32474 ft 398 kts 195°
2026-05-06 13:47 37.67612 -4.81553 31911 ft 396 kts 195°
2026-05-06 13:48 37.64937 -4.82092 31389 ft 393 kts 195°
2026-05-06 13:48 37.62246 -4.82630 30869 ft 391 kts 195°
2026-05-06 13:48 37.59573 -4.83169 30371 ft 387 kts 195°
2026-05-06 13:48 37.56923 -4.83704 29832 ft 385 kts 195°
2026-05-06 13:49 37.54289 -4.84239 29347 ft 382 kts 195°
2026-05-06 13:49 37.51678 -4.84769 28878 ft 378 kts 194°
2026-05-06 13:49 37.49089 -4.85287 28416 ft 375 kts 194°
2026-05-06 13:49 37.46528 -4.85796 27960 ft 371 kts 194°
2026-05-06 13:50 37.44842 -4.86132 27672 ft 369 kts 194°
2026-05-06 13:50 37.41509 -4.86798 27092 ft 364 kts 194°
2026-05-06 13:50 37.39012 -4.87301 26635 ft 362 kts 194°
2026-05-06 13:50 37.36536 -4.87799 26185 ft 359 kts 194°
2026-05-06 13:51 37.34075 -4.88291 25766 ft 356 kts 194°
2026-05-06 13:51 37.31639 -4.88775 25351 ft 353 kts 194°
2026-05-06 13:51 37.29223 -4.89256 24926 ft 350 kts 194°
2026-05-06 13:51 37.27634 -4.89574 24628 ft 349 kts 194°
2026-05-06 13:52 37.25240 -4.90054 24191 ft 347 kts 194°
2026-05-06 13:52 37.22869 -4.90531 23778 ft 344 kts 194°
2026-05-06 13:52 37.20512 -4.91004 23366 ft 341 kts 193°
2026-05-06 13:52 37.17421 -4.91612 22827 ft 338 kts 193°
2026-05-06 13:53 37.15108 -4.92068 22420 ft 335 kts 193°
2026-05-06 13:53 37.12811 -4.92525 22006 ft 333 kts 193°
2026-05-06 13:53 37.11295 -4.92829 21733 ft 332 kts 193°
2026-05-06 13:53 37.09020 -4.93283 21322 ft 330 kts 193°
2026-05-06 13:54 37.06760 -4.93733 20918 ft 328 kts 193°
2026-05-06 13:54 37.04490 -4.93965 20526 ft 329 kts 184°
2026-05-06 13:54 37.02209 -4.93904 20160 ft 327 kts 182°
2026-05-06 13:54 36.99207 -4.93716 19640 ft 327 kts 181°
2026-05-06 13:55 36.97672 -4.93610 19365 ft 327 kts 181°
2026-05-06 13:55 36.95400 -4.93465 18960 ft 327 kts 181°
2026-05-06 13:55 36.93128 -4.93342 18556 ft 327 kts 181°
2026-05-06 13:55 36.90889 -4.93234 18178 ft 326 kts 181°
2026-05-06 13:56 36.88623 -4.93123 17801 ft 325 kts 181°
2026-05-06 13:56 36.86367 -4.93013 17424 ft 324 kts 181°
2026-05-06 13:56 36.84110 -4.92901 17012 ft 325 kts 181°
2026-05-06 13:56 36.81849 -4.92786 16595 ft 325 kts 181°
2026-05-06 13:57 36.79588 -4.92667 16200 ft 325 kts 180°
2026-05-06 13:57 36.77332 -4.92548 15818 ft 324 kts 180°
2026-05-06 13:57 36.75081 -4.92433 15424 ft 324 kts 180°
2026-05-06 13:57 36.72847 -4.92317 15142 ft 317 kts 180°
2026-05-06 13:58 36.70693 -4.92201 14968 ft 303 kts 180°
2026-05-06 13:58 36.68655 -4.92093 14741 ft 292 kts 180°
2026-05-06 13:58 36.66641 -4.91990 14327 ft 288 kts 180°
2026-05-06 13:58 36.64642 -4.91893 13868 ft 287 kts 180°
2026-05-06 13:59 36.62657 -4.91796 13408 ft 285 kts 180°
2026-05-06 13:59 36.60680 -4.91696 12944 ft 284 kts 180°
2026-05-06 13:59 36.58711 -4.91594 12546 ft 284 kts 180°
2026-05-06 13:59 36.56731 -4.91494 12171 ft 285 kts 180°
2026-05-06 14:00 36.54752 -4.91393 11837 ft 284 kts 180°
2026-05-06 14:00 36.52782 -4.91287 11494 ft 283 kts 180°
2026-05-06 14:00 36.50822 -4.91184 11174 ft 281 kts 180°
2026-05-06 14:00 36.48898 -4.91088 10870 ft 279 kts 179°
2026-05-06 14:01 36.46980 -4.90988 10687 ft 271 kts 179°
2026-05-06 14:01 36.45137 -4.90896 10589 ft 260 kts 179°
2026-05-06 14:01 36.43351 -4.90803 10311 ft 255 kts 179°
2026-05-06 14:01 36.41588 -4.90711 9926 ft 253 kts 179°
2026-05-06 14:02 36.39832 -4.90619 9527 ft 252 kts 179°
2026-05-06 14:02 36.38079 -4.90528 9125 ft 252 kts 179°
2026-05-06 14:02 36.36333 -4.90440 8718 ft 251 kts 178°
2026-05-06 14:02 36.34615 -4.90352 8326 ft 250 kts 178°
2026-05-06 14:03 36.32883 -4.90262 7929 ft 248 kts 178°
2026-05-06 14:03 36.31162 -4.90172 7531 ft 247 kts 178°
2026-05-06 14:03 36.29445 -4.90082 7133 ft 246 kts 178°
2026-05-06 14:03 36.27738 -4.89998 6739 ft 245 kts 178°
2026-05-06 14:04 36.26041 -4.89913 6342 ft 244 kts 178°
2026-05-06 14:04 36.24351 -4.89823 5936 ft 243 kts 178°
2026-05-06 14:04 36.22668 -4.89735 5540 ft 241 kts 178°
2026-05-06 14:04 36.20997 -4.89651 5141 ft 240 kts 179°
2026-05-06 14:05 36.19334 -4.89569 4740 ft 239 kts 179°
2026-05-06 14:05 36.17701 -4.89542 4338 ft 237 kts 187°
2026-05-06 14:05 36.16161 -4.90151 3907 ft 233 kts 217°
2026-05-06 14:05 36.15161 -4.91665 3479 ft 229 kts 251°
2026-05-06 14:06 36.14974 -4.93593 3179 ft 226 kts 274°
2026-05-06 14:06 36.15122 -4.95490 3068 ft 216 kts 276°
2026-05-06 14:06 36.15226 -4.97299 2953 ft 207 kts 272°
2026-05-06 14:06 36.15253 -4.99041 2787 ft 198 kts 271°
2026-05-06 14:07 36.15266 -5.00693 2588 ft 190 kts 271°
2026-05-06 14:07 36.15295 -5.02337 2591 ft 192 kts 272°
2026-05-06 14:07 36.15332 -5.04014 2593 ft 192 kts 272°
2026-05-06 14:07 36.15367 -5.05661 2592 ft 188 kts 272°
2026-05-06 14:08 36.15395 -5.07203 2602 ft 172 kts 271°
2026-05-06 14:08 36.15422 -5.08635 2632 ft 164 kts 272°
2026-05-06 14:08 36.15450 -5.10039 2621 ft 163 kts 272°
2026-05-06 14:08 36.15478 -5.11434 2612 ft 162 kts 271°
2026-05-06 14:09 36.15507 -5.12824 2607 ft 162 kts 271°
2026-05-06 14:09 36.15535 -5.14218 2604 ft 162 kts 271°
2026-05-06 14:09 36.15560 -5.15592 2602 ft 162 kts 271°
2026-05-06 14:09 36.15588 -5.16982 2600 ft 162 kts 272°
2026-05-06 14:10 36.15616 -5.18375 2599 ft 161 kts 271°
2026-05-06 14:10 36.15637 -5.19702 2587 ft 148 kts 271°
2026-05-06 14:10 36.15658 -5.20939 2595 ft 142 kts 271°
2026-05-06 14:10 36.15653 -5.22163 2536 ft 144 kts 267°
2026-05-06 14:11 36.15588 -5.23404 2200 ft 144 kts 266°
2026-05-06 14:11 36.15535 -5.24635 1804 ft 143 kts 266°
2026-05-06 14:11 36.15486 -5.25860 1385 ft 143 kts 266°
2026-05-06 14:11 36.15454 -5.27078 1008 ft 140 kts 265°
2026-05-06 14:12 36.15430 -5.28263 718 ft 137 kts 264°
2026-05-06 14:12 36.15394 -5.29428 542 ft 138 kts 264°
2026-05-06 14:12 36.15344 -5.30608 435 ft 137 kts 263°
2026-05-06 14:12 36.15286 -5.31788 320 ft 137 kts 263°
2026-05-06 14:13 36.15216 -5.32962 180 ft 137 kts 262°
2026-05-06 14:13 36.15145 -5.34132 34 ft 133 kts 263°
2026-05-06 14:13 36.15111 -5.35016 24 ft 59 kts 266°
2026-05-06 14:13 36.15086 -5.35381 24 ft 37 kts 268°
2026-05-06 14:14 36.15078 -5.35666 24 ft 23 kts 275°
2026-05-06 14:14 36.15109 -5.35677 24 ft 9 kts 106°
2026-05-06 14:14 36.15098 -5.35590 24 ft 12 kts 91°
2026-05-06 14:14 36.15099 -5.35479 24 ft 14 kts 88°
2026-05-06 14:15 36.15105 -5.35338 24 ft 18 kts 86°
2026-05-06 14:15 36.15111 -5.35163 24 ft 22 kts 88°
2026-05-06 14:15 36.15118 -5.34966 24 ft 24 kts 85°
2026-05-06 14:15 36.15125 -5.34766 24 ft 22 kts 88°
2026-05-06 14:16 36.15186 -5.34682 24 ft 11 kts
2026-05-06 14:16 36.15233 -5.34632 24 ft 8 kts 31°
2026-05-06 14:16 36.15271 -5.34629 24 ft 6 kts 358°
2026-05-06 14:16 36.15305 -5.34630 24 ft 0 kts 359°